Simultaneous Nadir Overpasses (SNOs) Predictions

Prediction of SNOs between METOP-A and NOAA-19 Satellite Orbit:

Table of predicted SNOs for the next 14.0 days since TLE Epoch: 10/21/2011
Index Date Time (METOP-A) METOP-A Lat,Lon NOAA-19 Lat,Lon Distance(km) Time Diff (sec)
1 10/23/2011 09:49:05 -75.07,-149.94 -75.07,-159.80 282.29 43
2 10/23/2011 10:40:02 74.21, 15.06 74.24, 9.78 159.60 59
3 10/23/2011 11:31:03 -73.29,-179.84 -73.30, 179.31 27.36 72
4 10/23/2011 12:21:46 73.10, -12.92 73.07, -12.93 3.18 61
5 10/23/2011 13:12:29 -73.07, 154.34 -73.06, 154.32 1.60 37
6 10/23/2011 14:03:09 73.03, -38.41 73.03, -38.36 1.38 19
7 10/23/2011 14:53:52 -73.00, 128.86 -73.02, 128.88 1.87 5
8 10/23/2011 15:44:31 73.01, -63.78 72.99, -63.80 2.64 24
9 10/23/2011 16:35:13 -72.99, 103.48 -72.98, 103.44 1.54 48
10 10/23/2011 17:25:53 72.95, -89.27 72.95, -89.24 1.02 66
11 10/23/2011 18:16:48 -72.31, 76.74 -72.34, 79.27 85.38 66
12 10/23/2011 19:07:43 71.49,-117.47 71.54,-111.94 194.91 54
13 10/23/2011 19:58:51 -70.16, 47.63 -70.24, 57.50 371.53 28
14 11/02/2011 04:38:14 -75.03, -72.30 -75.03, -81.99 277.94 44
15 11/02/2011 05:29:11 74.17, 92.70 74.15, 87.71 151.42 60
16 11/02/2011 06:20:12 -73.25,-102.17 -73.25,-102.90 23.16 73
17 11/02/2011 07:10:55 73.05, 64.74 73.08, 64.75 2.63 60
18 11/02/2011 08:01:38 -73.03,-127.99 -73.02,-127.89 3.58 38
19 11/02/2011 08:52:17 73.04, 39.36 73.04, 39.31 1.76 17
20 11/02/2011 09:43:00 -73.01,-153.37 -73.03,-153.45 3.12 6
21 11/02/2011 10:33:40 72.97, 13.88 73.00, 13.86 3.64 25
22 11/02/2011 11:24:23 -72.95,-178.85 -72.94,-178.78 2.34 47
23 11/02/2011 12:15:02 72.95, -11.50 72.97, -11.58 2.89 68
24 11/02/2011 13:05:57 -72.32, 154.52 -72.35, 156.94 81.75 67
25 11/02/2011 13:56:53 71.45, -39.80 71.51, -34.19 198.23 54




NCC Satellite Simultaneous Nadir Overpasses (SNOs) Prediction Service
